CW5973 Weather Reports


Display with metric or nautical units.
time (UTC)temp
F
wind
direction
speed
MPH
gust
MPH
rain 1hr
in
rain 24hr
in
rain mn
in
humidity
%
barometer
mb
20181022124933 32 216 0.0 0.0 0.00 0.00 0.00 93 1023.2
20181022123423 32 216 0.0 0.0 0.00 0.00 0.00 93 1023.1
20181022121934 32 216 0.0 0.0 0.00 0.00 0.00 93 1023.1
20181022120424 32 216 0.0 0.0 0.00 0.00 0.00 93 1023.1
20181022114933 32 216 0.0 0.0 0.00 0.00 0.00 93 1023.1
20181022113422 32 216 0.0 0.0 0.00 0.00 0.00 93 1023.0
20181022111928 32 216 0.0 0.0 0.00 0.00 0.00 93 1022.8
20181022110419 32 216 0.0 0.0 0.00 0.00 0.00 93 1022.9
20181022104927 32 216 0.0 0.0 0.00 0.00 0.00 93 1023.0
20181022103459 32 216 0.0 0.0 0.00 0.00 0.00 93 1022.9
20181022101922 31 216 0.0 0.0 0.00 0.00 0.00 93 1022.9
20181022100425 31 216 0.0 0.0 0.00 0.00 0.00 93 1022.8
20181022094933 32 216 0.0 0.0 0.00 0.00 0.00 92 1023.0
20181022093436 32 216 0.0 0.0 0.00 0.00 0.00 92 1023.0
20181022091924 32 216 0.0 0.0 0.00 0.00 0.00 92 1022.5
20181022090428 32 216 0.0 0.0 0.00 0.00 0.00 92 1022.6
20181022084932 32 216 0.0 0.0 0.00 0.00 0.00 92 1022.6
20181022083439 32 216 0.0 0.0 0.00 0.00 0.00 92 1022.6
20181022081927 32 216 0.0 0.0 0.00 0.00 0.00 92 1022.6
20181022080436 32 216 0.0 0.0 0.00 0.00 0.00 92 1022.6
20181022074940 32 216 0.0 0.0 0.00 0.00 0.00 92 1022.5
20181022073429 32 216 0.0 0.0 0.00 0.00 0.00 92 1022.5
20181022071933 32 216 0.0 0.0 0.00 0.00 0.00 91 1022.6
20181022070438 32 216 0.0 0.0 0.00 0.00 0.00 91 1022.6
20181022064927 32 216 0.0 0.0 0.00 0.00 0.00 91 1022.6
20181022063433 33 216 0.0 0.0 0.00 0.00 0.00 91 1022.6
20181022061924 33 216 0.0 0.0 0.00 0.00 0.00 90 1022.7
20181022060429 33 216 0.0 0.0 0.00 0.00 0.00 90 1022.7
20181022054932 33 216 0.0 0.0 0.00 0.00 0.00 90 1022.7
20181022053422 33 216 0.0 0.0 0.00 0.00 0.00 90 1022.6
20181022051928 33 216 0.0 0.0 0.00 0.00 0.00 90 1022.7
20181022050435 33 216 0.0 0.0 0.00 0.00 0.00 89 1022.6
20181022044924 33 216 0.0 0.0 0.00 0.00 0.00 89 1022.7
20181022043430 33 216 0.0 0.0 0.00 0.00 0.00 88 1022.9
20181022041941 33 216 0.0 0.0 0.00 0.00 0.00 88 1023.2
20181022040427 33 216 0.0 0.0 0.00 0.00 0.00 87 1023.1
20181022034935 33 216 0.0 0.0 0.00 0.00 0.00 87 1023.1
20181022033437 33 216 0.0 0.0 0.00 0.00 0.00 87 1023.1
20181022031925 34 216 0.0 0.0 0.00 0.00 0.00 86 1023.1
20181022030431 34 216 0.0 0.0 0.00 0.00 0.00 86 1023.0
20181022024956 34 216 0.0 0.0 0.00 0.00 0.00 85 1023.1
20181022023430 34 216 0.0 0.0 0.00 0.00 0.00 84 1023.1
20181022021940 35 216 0.0 0.0 0.00 0.00 0.00 84 1023.1
20181022020431 35 216 0.0 0.0 0.00 0.02 0.00 83 1023.1
20181022014936 35 216 0.0 0.0 0.00 0.02 0.00 83 1023.2
20181022013419 36 216 0.0 0.0 0.00 0.02 0.00 82 1023.2
20181022011933 36 216 0.0 0.0 0.00 0.02 0.00 81 1023.2
20181022010422 37 216 0.0 0.0 0.00 0.03 0.00 80 1023.1
20181022004933 37 216 0.0 0.0 0.00 0.03 0.00 79 1023.1
20181022003441 38 216 0.0 0.0 0.00 0.03 0.00 79 1023.0
20181022001928 38 216 0.0 0.0 0.00 0.03 0.00 78 1023.1
20181022000437 39 216 0.0 0.0 0.00 0.03 0.00 77 1023.1
20181021234940 40 216 0.0 0.0 0.00 0.03 0.00 76 1023.0
20181021233429 41 216 0.0 0.0 0.00 0.03 0.00 73 1023.1
20181021231939 41 216 0.0 0.0 0.00 0.03 0.00 72 1022.9
20181021230425 42 216 0.0 0.0 0.00 0.03 0.00 70 1022.7
20181021224928 42 216 0.0 0.0 0.00 0.03 0.00 68 1022.7
20181021223434 43 216 0.0 1.0 0.00 0.03 0.00 67 1023.0
20181021221928 43 216 0.0 1.0 0.00 0.03 0.00 66 1023.0
20181021220437 44 216 0.0 2.0 0.00 0.03 0.00 65 1022.7
20181021214929 45 216 0.0 2.0 0.00 0.03 0.00 61 1022.6
20181021213438 47 216 0.0 3.0 0.00 0.03 0.00 56 1022.5
20181021211927 49 216 0.0 2.0 0.00 0.03 0.00 50 1022.2
20181021210437 50 217 0.0 3.0 0.00 0.03 0.00 43 1022.3
20181021204939 50 216 0.0 8.0 0.00 0.03 0.00 44 1022.6
20181021203426 50 192 0.0 1.0 0.00 0.03 0.00 43 1022.6
20181021201930 50 223 0.0 5.0 0.00 0.03 0.00 44 1022.6
20181021200433 49 138 1.0 4.0 0.00 0.03 0.00 44 1022.5
20181021194939 49 247 0.0 6.0 0.00 0.03 0.00 46 1022.6
20181021193421 48 11 1.0 2.0 0.00 0.03 0.00 45 1022.7
20181021191931 48 297 0.0 6.0 0.00 0.03 0.00 46 1022.8
20181021190438 48 249 0.0 3.0 0.00 0.03 0.00 47 1023.0
20181021184926 47 72 1.0 4.0 0.00 0.03 0.00 45 1023.2
20181021183429 46 200 0.0 7.0 0.00 0.03 0.00 49 1023.5
20181021181935 45 184 0.0 3.0 0.00 0.03 0.00 50 1023.7
20181021180424 45 42 1.0 9.0 0.00 0.03 0.00 50 1024.0
20181021174930 45 52 0.0 6.0 0.00 0.03 0.00 50 1024.3
20181021173419 45 11 0.0 10.0 0.00 0.03 0.00 52 1024.4
20181021171930 44 331 1.0 4.0 0.00 0.03 0.00 52 1024.8
20181021170433 42 341 0.0 5.0 0.00 0.03 0.00 55 1025.1
20181021164924 42 38 1.0 6.0 0.00 0.03 0.00 54 1025.3
20181021163428 42 221 0.0 4.0 0.00 0.03 0.00 56 1025.5
20181021161923 42 22 1.0 7.0 0.00 0.03 0.00 58 1025.7
20181021160432 42 323 0.0 4.0 0.00 0.04 0.00 59 1025.8
20181021154922 41 263 0.0 3.0 0.00 0.04 0.00 61 1025.9
20181021153430 41 294 0.0 3.0 0.00 0.04 0.00 61 1026.2
20181021151922 41 265 0.0 3.0 0.00 0.04 0.00 60 1026.2
20181021150434 41 219 0.0 1.0 0.00 0.04 0.00 62 1026.1
20181021144941 41 219 0.0 5.0 0.00 0.04 0.00 61 1026.0
20181021143431 40 55 0.0 1.0 0.00 0.04 0.00 63 1025.9
20181021141924 40 56 0.0 3.0 0.00 0.04 0.00 61 1025.8
20181021140430 40 9 0.0 0.0 0.00 0.04 0.00 62 1025.8
20181021134939 40 342 0.0 3.0 0.00 0.04 0.00 61 1025.8
20181021133425 39 340 0.0 1.0 0.00 0.04 0.00 62 1025.8
20181021131936 39 321 0.0 5.0 0.00 0.04 0.00 62 1025.1
20181021130422 39 24 0.0 0.0 0.00 0.04 0.00 64 1025.2